AirNav   Air Wisconsin Up To $57,000 Bonus
 
 1079 users online  

7F7 Clifton Municipal Airport/Isenhower Field
Clifton, Texas, USA

GOING TO CLIFTON?


FAA INFORMATION EFFECTIVE 15 AUGUST 2019

Location

FAA Identifier: 7F7
Lat/Long: 31-49-01.6800N 097-34-10.4500W
31-49.028000N 097-34.174167W
31.8171333,-97.5695694
(estimated)
Elevation: 760 ft. / 232 m (estimated)
Variation: 07E (1985)
From city: 2 miles N of CLIFTON, TX
Time zone: UTC -5 (UTC -6 during Standard Time)
Zip code: 76634

Airport Operations

Airport use: Open to the public
Activation date: 05/1966
Control tower: no
ARTCC: FORT WORTH CENTER
FSS: FORT WORTH FLIGHT SERVICE STATION
NOTAMs facility: FTW (NOTAM-D service available)
Attendance: MON-FRI 0800-1630
FOR ARPT ATTENDANT ON SAT & SUN CALL 254-978-0020 OR 254-253-0859; AFT HR FEE.
Wind indicator: lighted
Segmented circle: no
Lights: DUSK-DAWN. MIRL RY 14/32 PRESET LOW INTST; TO INCR INTST ACTVT - CTAF.
Beacon: white-green (lighted land airport)
Operates sunset to sunrise.

Airport Communications

CTAF/UNICOM: 122.8

Nearby radio navigation aids

VOR radial/distance  VOR name  Freq  Var
ACTr292/17.9WACO VORTAC115.3009E
JENr137/25.8GLEN ROSE VORTAC115.0006E

 
NDB name  Hdg/Dist  Freq  Var  ID
ROBINSON299/31.740007EROB .-. --- -...

Airport Services

Fuel available: 100LL
Parking: hangars and tiedowns
Airframe service: MAJOR
Powerplant service: MAJOR
Bottled oxygen: HIGH

Runway Information

Runway 14/32

Dimensions: 3000 x 50 ft. / 914 x 15 m
Surface: asphalt, in fair condition
Weight bearing capacity: 
Single wheel: 13.0
Runway edge lights: medium intensity
Gradient: NW.
RUNWAY 14  RUNWAY 32
Latitude: 31-49.238333N31-48.817500N
Longitude: 097-34.326667W097-34.021667W
Elevation: 756.0 ft.748.0 ft.
Traffic pattern: leftleft
Runway heading: 142 magnetic, 149 true322 magnetic, 329 true
Displaced threshold: no150 ft.
Markings: basic, in good conditionbasic, in good condition
Visual slope indicator: 2-light PAPI on left (3.00 degrees glide path)2-light PAPI on right (3.00 degrees glide path)
Obstructions: 160 ft. hill, 5500 ft. from runway, 33:1 slope to clear30 ft. trees, 201 ft. from runway, 56 ft. left of centerline
8 FT FENCE 190 FT FM THLD ON EXTNDD CNTRLN.

Airport Ownership and Management from official FAA records

Ownership: Publicly-owned
Owner: CITY OF CLIFTON
PO BOX 231
CLIFTON, TX 76634
Phone 254-675-8337
Manager: TIM TALLEY
PO BOX 249
CLIFTON, TX 76634
Phone 254-675-3771

Airport Operational Statistics

Aircraft based on the field: 11
Single engine airplanes: 11
    
Aircraft operations: avg 123/week *
75% local general aviation
25% transient general aviation
* for 12-month period ending 31 December 2018

Additional Remarks

STEEP DROP OFF NORTH OF RWY 14.
GRVL ON NE END OF TWY.
RY 14 HAS WATER PONDING AT END OF RY AFT HVY RAIN.
SECURITY GATE LOCKED AFTER HRS. FOR ACCESS CONTACT 254-675-6620.
FOR CD CTC FORT WORTH ARTCC AT 817-858-7584.

Instrument Procedures

There are no published instrument procedures at 7F7.

Some nearby airports with instrument procedures:

KACT - Waco Regional Airport (21 nm SE)
KPWG - Mc Gregor Executive Airport (24 nm SE)
KCNW - TSTC Waco Airport (27 nm SE)
KINJ - Hillsboro Municipal Airport (29 nm NE)
KMNZ - Hamilton Municipal Airport (31 nm W)
 
Loc | Ops | Rwys | IFR | FBO | Links
Com | Nav | Svcs | Stats | Notes
Area around 7F7 (Clifton Municipal Airport/Isenhower Field)
 
Road maps at: MapQuest Bing Google
 
Aerial photo
WARNING: Photo may not be current or correct
Aerial photo of 7F7 (Clifton Municipal Airport/Isenhower Field)
Photo by Bill Gunn, Texas DOT Aviation Division
Photo taken 27-Oct-2005

Do you have a better or more recent aerial photo of Clifton Municipal Airport/Isenhower Field that you would like to share? If so, please send us your photo.

 
Sectional chart

 
Airport distance calculator
Flying to Clifton Municipal Airport/Isenhower Field? Find the distance to fly.

From to 7F7

Sunrise and sunset
Times for 17-Aug-2019
 Local
(UTC-5)
 Zulu
(UTC)
Morning civil twilight06:3211:32
Sunrise06:5711:57
Sunset20:1101:11
Evening civil twilight20:3701:37

Current date and time
Zulu (UTC)  17-Aug-2019 18:26:17
Local (UTC-5)  17-Aug-2019 13:26:17
 
METAR
KACT 
21nm SE 
171751Z 19010KT 10SM CLR 35/21 A2988 RMK AO2 SLP110 T03500211 10350 20261 58006 $
KPWG 
25nm SE 
171756Z AUTO 14010G17KT 10SM CLR 36/22 A2989 RMK AO2 SLP113 T03560217 10361 20256 58006
KGOP 
26nm SW 
171815Z AUTO 16008KT 10SM CLR 35/20 A2990 RMK AO2
KCNW 
28nm SE 
171755Z 20010G18KT 10SM SKC 35/20 A2989
KINJ 
29nm NE 
171815Z AUTO 18006G14KT 10SM CLR 35/22 A2988 RMK AO2 T03490224
KMNZ 
31nm W 
171815Z AUTO 18011G15KT 10SM CLR 36/19 A2990 RMK AO2 T03600185
KCPT 
33nm N 
171815Z AUTO 18012KT 160V220 10SM CLR 35/21 A2990 RMK AO2
KSEP 
39nm NW 
171815Z AUTO 19008KT 10SM CLR 36/18 A2991 RMK AO2 T03610179
KGDJ 
40nm N 
AWOS-3 118.925 817-573-7514
171815Z AUTO 13008G20KT 10SM CLR 37/19 A2987 RMK AO2 T03650190
KHLR 
42nm S 
171758Z AUTO 20009G16KT 10SM CLR 35/21 A2985 RMK AO2 SLP094 T03490205 10349 20252
TAF
KACT 
21nm SE 
171720Z 1718/1818 18012KT P6SM FEW060 FM181000 18013KT P6SM SCT015
NOTAMs
Click for the latest NOTAMs
NOTAMs are issued by the DoD/FAA and will open in a separate window not controlled by AirNav.

 

 
 

FBO, Fuel Providers, and Aircraft Ground Support

  
 Business Name 
 
 Contact 
 
 Services / Description 
 
Fuel Prices
 
Comments
  
Clifton Aero 254-675-3771
no information available

If you are affiliated with Clifton Aero and would like to show here your services, contact info, web link, logo, and more, click here
100LL
SS $4.22 
 Updated 13-Aug-2019
 
   2 read write
SS=Self service
Update Fuel Prices
 

Would you like to see your business listed on this page?

 If your business provides an interesting product or service to pilots, flight crews, aircraft, or users of the Clifton Municipal Airport/Isenhower Field, you should consider listing it here.  To start the listing process, click on the button below
 
Add a business
 

Other Pages about Clifton Municipal Airport/Isenhower Field

Update a link
 
Copyright © AirNav, LLC. All rights reserved. Privacy Policy  Contact